Regional Weather Roundup
Issued by NWS

Home | Current Version | Previous Version | Text Only | Print | Product List | Glossary On
Versions: 1 2 3 4 5 6 7 8 9 10 11 12 13 14 15 16 17 18 19 20 21 22 23 24 25 26 27 28 29 30 31 32 33 34 35 36 37 38 39 40 41 42 43 44 45 46 47 48 49 50
000
ASUS44 KFWD 011915
RWRTX
NORTH TEXAS HOURLY WEATHER ROUNDUP
NATIONAL WEATHER SERVICE FORT WORTH TX
100 PM CST WED MAR 01 2017

NOTE: "FAIR" INDICATES FEW OR NO CLOUDS BELOW 12,000 FEET WITH NO
SIGNIFICANT WEATHER AND/OR OBSTRUCTIONS TO VISIBILITY.

TXZ118-119-012000-
DALLAS/FORT WORTH METROPLEX

CITY           SKY/WX    TMP DP  RH WIND       PRES   REMARKS
DFW AIRPORT    MOSUNNY   65  16  15 N16G26    30.22S
DALLAS LOVE    MOSUNNY   65  15  14 N21G29    30.22F
FTW MEACHAM    SUNNY     65  14  14 N21G31    30.24S
DAL-EXECUTIVE  SUNNY     63  23  21 NW18G26   30.22S
FTW-ALLIANCE   MOSUNNY   64  11  12 N20G26    30.24S
FTW-NAS-JRB    MOSUNNY   65  15  14 N13G24    30.25F
FTW-SPINKS     SUNNY     63  21  20 N17G28    30.25F
ARLINGTON      SUNNY     64  17  16 NW17G26   30.23F
ADDISON        SUNNY     63  16  16 N17G26    30.23F
MESQUITE       SUNNY     63  25  23 N16G26    30.22F
LANCASTER      SUNNY     61  29  29 N17G26    30.23F
$$

TXZ091>094-102>105-117-120-121-131>134-012000-
NORTH CENTRAL TEXAS

CITY           SKY/WX    TMP DP  RH WIND       PRES   REMARKS
SHRMAN/DENISON SUNNY     62  16  16 N20       30.24F
GAINESVILLE    SUNNY     62  12  14 NW24      30.26F
BOWIE          SUNNY     61  13  15 N16G29    30.27S
BRIDGEPORT     SUNNY     62  17  18 N18       30.28F
DECATUR        SUNNY     61   8  12 N15G25    30.25F
DENTON         SUNNY     63  16  16 N22G30    30.24F
MCKINNEY       SUNNY     62  16  16 N23G31    30.22F
BONHAM         SUNNY     61  16  17 NW15G26   30.22F
GREENVILLE     SUNNY     63  21  20 N17G23    30.22S
ROCKWALL       SUNNY     62  25  24 N17G28    30.22F
TERRELL        SUNNY     63  20  19 N16G28    30.21F
WAXAHACHIE     SUNNY     63  29  28 N21G26    30.23F
CLEBURNE       SUNNY     63  19  19 N20G30    30.24F
$$

TXZ083>090-098>101-113>116-127>130-139>142-154-155-012000-
WESTERN NORTH TEXAS

CITY           SKY/WX    TMP DP  RH WIND       PRES   REMARKS
WICHITA FALLS  MOSUNNY   61  13  15 N20G31    30.29F
WF-KICKAPOO    SUNNY     59  12  15 N22G30    30.31F
VERNON         SUNNY     59   2  10 NE15      30.32F
ABILENE        SUNNY     57  15  19 N16G24    30.29F
ABILENE-DYESS  SUNNY     57  15  19 NE17G23   30.28F
GRAHAM         SUNNY     61  19  20 N14G24    30.27F
BRECKENRIDGE   SUNNY     61  13  15 N15G24    30.28F
CISCO          SUNNY     57  14  18 N15G23    30.28F
RANGER         SUNNY     59  18  20 N17G23    30.27F
MINERAL WELLS  SUNNY     63  11  13 N20G29    30.25F
STEPHENVILLE   SUNNY     62  16  16 N16G28    30.27F
COMANCHE       SUNNY     60  26  27 NE12G28   30.26F
BROWNWOOD      SUNNY     61  18  18 N15G23    30.26F
COLEMAN        SUNNY     60  18  19 N17G26    30.27F
$$

TXZ143>147-156>162-174-175-012000-
CENTRAL TEXAS

CITY           SKY/WX    TMP DP  RH WIND       PRES   REMARKS
WACO           SUNNY     64  34  32 N15G26    30.21S
WACO-MCGREGOR  SUNNY     62  36  37 N15G23    30.21F
HILLSBORO      SUNNY     64  30  27 N20G30    30.21F
CORSICANA      SUNNY     65  31  28 N18G28    30.21S
MEXIA          SUNNY     64  33  31 N13G21    30.18F
HEARNE         SUNNY     68  40  35 NW20G25   30.16F
CAMERON        SUNNY     67  40  36 N21       30.18F
TEMPLE         SUNNY     64  36  35 N21G28    30.20F
KILLEEN        SUNNY     64  32  30 N17G24    30.19F
KILLEEN-SKYLRK SUNNY     66  35  31 N17G24    30.20F
FORT HOOD      MOSUNNY   65  33  29 N17G23    30.17F
GATESVILLE     SUNNY     64  30  27 N16G23    30.24F
HAMILTON       SUNNY     62  25  24 N20G26    30.24F
LAMPASAS       SUNNY     63  32  31 N10G21    30.21F
$$

TXZ095>097-106>112-122>126-135>138-148>153-164>167-012000-
EAST TEXAS

CITY           SKY/WX    TMP DP  RH WIND       PRES   REMARKS
PARIS          SUNNY     63  25  23 NW22      30.19F
SULPHUR SPRNGS SUNNY     62  29  29 N20       30.22F
MOUNT PLEASANT MOSUNNY   65  28  24 N13G21    30.19S
GILMER         CLOUDY    62  31  31 NW16G26   30.16F
MINEOLA        MOSUNNY   63  28  27 N18G26    30.19S
TYLER          MOSUNNY   66  31  27 N14       30.16F
LONGVIEW       PTSUNNY   66  37  34 N15G22    30.14S
MARSHALL       PTSUNNY   65  33  30 N16       30.15S
ATHENS         MOSUNNY   64  30  27 N17G24    30.16F
PALESTINE      MOSUNNY   67  39  35 NW13G23   30.17F
JACKSONVILLE   MOSUNNY   64  38  38 NW12G18   30.16S
HENDERSON      CLOUDY    65  35  32 N16       30.15F
CENTER         MOCLDY    75  42  30 N15G23    30.10S
NACOGDOCHES    PTSUNNY   72  43  35 N16       30.09F
LUFKIN         MOSUNNY   73  42  32 N10G24    30.08S
$$

SUPPLEMENTAL OBSERVATIONS (CENTRAL)

CITY           SKY/WX    TMP DP  RH WIND       PRES   REMARKS
DENISON DAM      N/A     59   7  12 VRB2        N/A
CADDO GRASSLND   N/A     64  16  15 N8G17       N/A
PAT MAYSE LAKE   N/A     63  16  16 NW15        N/A
GREENVILLE       N/A     63  21  20 N17G26      N/A
CEDAR HILL       N/A     64  23  20 N9G21       N/A
ATHENS           N/A     66  28  24 N10G18      N/A
LAKE LIMESTONE   N/A     66  37  34 N17G26      N/A
MCGREGOR         N/A     64  34  32 N13G23      N/A
TEMPLE           N/A     64  34  32 N6G22       N/A
$$

SUPPLEMENTAL OBSERVATIONS (WEST)

CITY           SKY/WX    TMP DP  RH WIND       PRES   REMARKS
MILLERS CREEK    N/A     57  18  21 NE16G24     N/A
POSSUM KINGDOM   N/A     61  18  18 N15G24      N/A
LBJ GRASSLAND    N/A     64  14  14 N13G24      N/A
GRANBURY         N/A     63  21  20 N15G24      N/A
COMANCHE         N/A     61  23  23 N18G26      N/A
HAMBY            N/A     57  16  19 N15G22      N/A
IVIE RESERVOIR   N/A     61  21  21 NE14G22     N/A
COLORADO BEND    N/A     64  32  29 NE9G18      N/A
$$

SUPPLEMENTAL OBSERVATIONS (EAST)

CITY           SKY/WX    TMP DP  RH WIND       PRES   REMARKS
CLARKSVILLE      N/A     64  23  20 N20G26      N/A
TEXARKANA        N/A     66  28  24 NW9G20      N/A
LINDEN           N/A     66  30  26 N9G18       N/A
CADDO LAKE       N/A     66  34  30 NW8G16      N/A
GILMER           N/A     64  30  27 N12G21      N/A
HENDERSON        N/A     64  34  32 N14G23      N/A
LUFKIN           N/A     72  41  33 MISG        N/A
N SABINE NF      N/A     77  46  33 MISG        N/A
S SABINE NF      N/A     79  55  44 W7          N/A
$$

SUPPLEMENTAL OBSERVATIONS ARE A COLLECTION OF AUTOMATED INSTRUMENTS
THAT ARE MAINTAINED BY A VARIETY OF FEDERAL AND STATE AGENCIES.
CERTAIN ELEMENTS...SUCH AS HUMIDITY VALUES AND SUSTAINED WIND
SPEEDS...MAY BE APPROXIMATED.




USA.gov is the U.S. government's official web portal to all federal, state and local government web resources and services.